Weather History for KBYI - August, 2013

Change the Weather History Date:

Monday, August 26, 2013

  Actual Average Record
Temperature  
Mean Temperature 71 °F 66 °F  
Max Temperature 84 °F 82 °F 100 °F (2010)
Min Temperature 57 °F 49 °F 40 °F (1954)
Degree Days  
Heating Degree Days 0 2  
Month to date heating degree days 0 22  
Since 1 June heating degree days 101 178  
Since 1 July heating degree days 0 44  
Cooling Degree Days 6 3  
Month to date cooling degree days 179 120  
Year to date cooling degree days 553 333  
Since 1 June cooling degree days 543 327  
Growing Degree Days 20 (Base 50)    
Moisture  
Dew Point 53 °F    
Average Humidity 62    
Maximum Humidity 93    
Minimum Humidity 31    
Precipitation  
Precipitation 0.14 in 0.01 in 0.14 in (2013)
Month to date precipitation 0.30 0.32  
Year to date precipitation 2.63 6.68  
Sea Level Pressure  
Sea Level Pressure 29.93 in    
Wind  
Wind Speed 6 mph (SE)    
Max Wind Speed 15 mph    
Max Gust Speed 20 mph    
Visibility 10 miles    
Events Rain , Thunderstorm    
T = Trace of Precipitation, MM = Missing Value Source: NWS Daily Summary

Daily Weather History Graph

Daily Weather History Graph

Search for Another Location

Airport or City:

Trip Planner

Search our weather history database for the weather conditions in past years. The results will help you decide how hot, cold, wet, or windy it might be!

Date:

Astronomy

Aug. 26, 2013 Rise Set
Actual Time 6:53 AM MDT 8:18 PM MDT
Civil Twilight 6:24 AM MDT 8:48 PM MDT
Nautical Twilight 5:49 AM MDT 9:23 PM MDT
Astronomical Twilight 5:11 AM MDT 10:00 PM MDT
Moon 11:23 PM MDT (8/26) 1:08 PM MDT (8/26)
Length of Visible Light 14h 23m
Length of Day
13h 24m
Waning Gibbous, 66% of the Moon is Illuminated
Aug 26
Waning Gibbous
Aug 28
Last Quarter
Sep 5
New
Sep 12
First Quarter
Sep 19
Full

Hourly Weather History & Observations

Time (MDT) Temp. Dew Point Humidity Pressure Visibility Wind Dir Wind Speed Gust Speed Precip Events Conditions
12:53 AM 63.0 °F 54.0 °F 72% 29.86 in 10.0 mi Calm Calm - 0.02 in   Scattered Clouds
1:28 AM 62.6 °F 55.4 °F 77% 30.02 in 2.5 mi West 10.4 mph - 0.06 in Rain Heavy Rain
1:35 AM 66.2 °F 51.8 °F 60% 30.01 in 3.0 mi NNW 10.4 mph 19.6 mph 0.12 in Rain , Thunderstorm Heavy Thunderstorms and Rain
1:48 AM 62.6 °F 55.4 °F 77% 30.01 in 10.0 mi SSE 8.1 mph - 0.13 in Rain , Thunderstorm Light Thunderstorms and Rain
1:53 AM 63.0 °F 55.9 °F 78% 29.87 in 10.0 mi East 9.2 mph - 0.13 in Thunderstorm Thunderstorm
2:00 AM 62.6 °F 55.4 °F 77% 30.01 in 10.0 mi ESE 6.9 mph - 0.01 in Rain Light Rain
2:53 AM 64.0 °F 55.0 °F 73% 29.87 in 10.0 mi SE 4.6 mph - 0.01 in   Scattered Clouds
3:53 AM 57.9 °F 55.9 °F 93% 29.89 in 10.0 mi SW 4.6 mph - N/A   Clear
4:53 AM 61.0 °F 54.0 °F 78% 29.89 in 10.0 mi NW 4.6 mph - N/A   Clear
5:53 AM 62.1 °F 53.1 °F 72% 29.90 in 10.0 mi SSW 11.5 mph - N/A   Clear
6:53 AM 60.1 °F 53.1 °F 78% 29.94 in 10.0 mi WSW 8.1 mph - N/A   Clear
7:53 AM 63.0 °F 54.0 °F 72% 29.97 in 10.0 mi Calm Calm - N/A   Scattered Clouds
8:53 AM 63.0 °F 54.0 °F 72% 29.99 in 10.0 mi ENE 4.6 mph - N/A   Scattered Clouds
9:53 AM 66.9 °F 53.1 °F 61% 29.99 in 10.0 mi NNE 5.8 mph - N/A   Mostly Cloudy
10:53 AM 70.0 °F 52.0 °F 53% 30.00 in 10.0 mi NE 4.6 mph - N/A   Partly Cloudy
11:53 AM 72.0 °F 54.0 °F 53% 29.99 in 10.0 mi Calm Calm - N/A   Partly Cloudy
12:53 PM 75.9 °F 55.0 °F 48% 29.96 in 10.0 mi ESE 4.6 mph - N/A   Mostly Cloudy
1:53 PM 82.0 °F 51.1 °F 34% 29.94 in 10.0 mi ESE 3.5 mph - N/A   Mostly Cloudy
2:53 PM 82.0 °F 48.9 °F 31% 29.92 in 10.0 mi ESE 4.6 mph - N/A   Mostly Cloudy
3:53 PM 82.9 °F 50.0 °F 32% 29.91 in 10.0 mi Variable 4.6 mph - N/A   Partly Cloudy
4:53 PM 82.9 °F 52.0 °F 34% 29.89 in 10.0 mi East 6.9 mph - N/A   Partly Cloudy
5:53 PM 82.0 °F 51.1 °F 34% 29.89 in 10.0 mi South 9.2 mph - N/A   Clear
6:53 PM 79.0 °F 51.1 °F 38% 29.89 in 10.0 mi South 6.9 mph - N/A   Clear
7:53 PM 73.9 °F 55.9 °F 53% 29.89 in 10.0 mi SE 4.6 mph - N/A   Clear
8:53 PM 73.0 °F 51.1 °F 46% 29.90 in 10.0 mi SSE 4.6 mph - N/A   Clear
9:53 PM 70.0 °F 52.0 °F 53% 29.90 in 10.0 mi South 5.8 mph - N/A   Clear
10:53 PM 70.0 °F 51.1 °F 51% 29.89 in 10.0 mi South 8.1 mph - N/A   Clear
11:53 PM 70.0 °F 51.1 °F 51% 29.89 in 10.0 mi SE 4.6 mph - N/A   Clear